Location: Bishop�s Knoyle
(51.0728°N, 2.1714°W)
Time: 21:33:56
(UTC+00:00)

CENTAUR R/B - Pass Details

Date: 19 January 2021
Orbit: 742 x 1446 km, 63.5° (Epoch: 07 March)

Event Time Altitude Azimuth Distance (km) Brightness Sun altitude
Rises 06:14:41 0° 163° (SSE) 3,392 5.7 -16.4°
Reaches altitude 10° 06:17:52 10° 144° (SE) 2,566 5.4 -15.9°
Maximum altitude 06:21:34 17° 105° (ESE) 2,227 5.5 -15.3°
Drops below altitude 10° 06:25:38 10° 67° (ENE) 2,868 5.8 -14.7°
Sets 06:29:28 0° 50° (NE) 3,978 6.2 -14.1°
